• în România
  • Lista ţărilor
  • Pe 7 zile
  • Temperatura apei
  • Hartă satelitară
  • Meteo pe hartă
  • Widget-uri
  • user-avatar
    Intrare

    Meteo pe oră la Abutkovo

    Astăzi, 25 Iunie, Luni

    Timp Temperatura Precipitaţii Vânt Presiune Umiditate
    00:00 +9°C° 0 mm 2 m/s 742 mmHg 94%
    01:00 +9°C° 0 mm 2 m/s 742 mmHg 95%
    02:00 +9°C° 0 mm 1 m/s 743 mmHg 95%
    03:00 +10°C° 0 mm 1 m/s 743 mmHg 93%
    04:00 +11°C° 0 mm 1 m/s 743 mmHg 92%
    05:00 +10°C° 0 mm 2 m/s 744 mmHg 90%
    06:00 +13°C° 0 mm 2 m/s 744 mmHg 83%
    07:00 +15°C° 0 mm 2 m/s 744 mmHg 75%
    08:00 +17°C° 0 mm 2 m/s 744 mmHg 67%
    09:00 +18°C° 0 mm 2 m/s 745 mmHg 63%
    10:00 +19°C° 0 mm 3 m/s 745 mmHg 58%
    11:00 +20°C° 0 mm 3 m/s 745 mmHg 54%
    12:00 +21°C° 0 mm 3 m/s 745 mmHg 53%
    13:00 +21°C° 0 mm 3 m/s 745 mmHg 52%
    14:00 +22°C° 0 mm 3 m/s 745 mmHg 51%
    15:00 +23°C° 0 mm 2 m/s 746 mmHg 53%
    16:00 +23°C° 0 mm 2 m/s 746 mmHg 56%
    17:00 +21°C° 0 mm 2 m/s 746 mmHg 58%
    18:00 +20°C° 0 mm 2 m/s 746 mmHg 65%
    19:00 +18°C° 0 mm 2 m/s 746 mmHg 72%
    20:00 +16°C° 0 mm 1 m/s 746 mmHg 79%
    21:00 +15°C° 0 mm 1 m/s 747 mmHg 82%
    22:00 +14°C° 0 mm 1 m/s 747 mmHg 84%
    23:00 +13°C° 0 mm 1 m/s 747 mmHg 87%

    Mâine, 26 Iunie, Marţi

    Timp Temperatura Precipitaţii Vânt Presiune Umiditate
    00:00 +13°C° 0 mm 1 m/s 748 mmHg 88%
    01:00 +12°C° 0 mm 1 m/s 748 mmHg 90%
    02:00 +12°C° 0 mm 1 m/s 748 mmHg 91%
    03:00 +12°C° 0 mm 1 m/s 748 mmHg 89%
    04:00 +13°C° 0 mm 1 m/s 749 mmHg 87%
    05:00 +13°C° 0 mm 0 m/s 749 mmHg 85%
    06:00 +15°C° 0 mm 0 m/s 749 mmHg 79%
    07:00 +17°C° 0 mm 0 m/s 749 mmHg 72%
    08:00 +21°C° 0 mm 1 m/s 750 mmHg 66%
    09:00 +22°C° 0 mm 1 m/s 750 mmHg 61%
    10:00 +23°C° 0 mm 1 m/s 750 mmHg 56%
    11:00 +24°C° 0 mm 1 m/s 750 mmHg 52%
    12:00 +25°C° 0 mm 1 m/s 750 mmHg 51%
    13:00 +25°C° 0 mm 1 m/s 750 mmHg 50%
    14:00 +25°C° 0 mm 1 m/s 750 mmHg 49%
    15:00 +25°C° 0 mm 1 m/s 750 mmHg 51%
    16:00 +25°C° 0 mm 1 m/s 749 mmHg 53%
    17:00 +23°C° 0 mm 0 m/s 749 mmHg 55%
    18:00 +23°C° 0 mm 1 m/s 749 mmHg 60%
    19:00 +21°C° 0 mm 1 m/s 750 mmHg 66%
    20:00 +19°C° 0 mm 1 m/s 750 mmHg 72%
    21:00 +18°C° 0 mm 1 m/s 750 mmHg 74%
    22:00 +16°C° 0 mm 1 m/s 750 mmHg 75%
    23:00 +16°C° 0 mm 1 m/s 750 mmHg 77%

    Poimâine, 27 Iunie, Miercuri

    Timp Temperatura Precipitaţii Vânt Presiune Umiditate
    00:00 +15°C° 0 mm 1 m/s 750 mmHg 79%
    01:00 +14°C° 0 mm 1 m/s 750 mmHg 82%
    02:00 +14°C° 0 mm 1 m/s 750 mmHg 84%
    03:00 +15°C° 0 mm 2 m/s 750 mmHg 84%
    04:00 +15°C° 0 mm 2 m/s 751 mmHg 83%
    05:00 +16°C° 0 mm 2 m/s 751 mmHg 83%
    06:00 +18°C° 0 mm 2 m/s 751 mmHg 77%
    07:00 +20°C° 0 mm 2 m/s 751 mmHg 71%
    08:00 +23°C° 0 mm 2 m/s 751 mmHg 65%
    09:00 +24°C° 0 mm 3 m/s 751 mmHg 60%
    10:00 +25°C° 0 mm 3 m/s 751 mmHg 55%
    11:00 +26°C° 0 mm 3 m/s 751 mmHg 50%
    12:00 +26°C° 0 mm 3 m/s 751 mmHg 49%
    13:00 +27°C° 0 mm 3 m/s 751 mmHg 48%
    14:00 +27°C° 0 mm 3 m/s 750 mmHg 47%
    15:00 +27°C° 0 mm 3 m/s 750 mmHg 50%
    16:00 +26°C° 0 mm 3 m/s 750 mmHg 53%
    17:00 +26°C° 0 mm 3 m/s 750 mmHg 56%
    18:00 +24°C° 0 mm 2 m/s 750 mmHg 63%
    19:00 +21°C° 0 mm 2 m/s 750 mmHg 70%
    20:00 +20°C° 0 mm 2 m/s 750 mmHg 77%
    21:00 +19°C° 0 mm 2 m/s 750 mmHg 79%
    22:00 +18°C° 0 mm 2 m/s 750 mmHg 81%
    23:00 +17°C° 0 mm 2 m/s 751 mmHg 83%

    28 Iunie, Joi

    Timp Temperatura Precipitaţii Vânt Presiune Umiditate
    00:00 +16°C° 0 mm 2 m/s 751 mmHg 84%
    01:00 +16°C° 0 mm 2 m/s 751 mmHg 85%
    02:00 +15°C° 0 mm 2 m/s 751 mmHg 87%
    03:00 +16°C° 0 mm 2 m/s 751 mmHg 86%
    04:00 +16°C° 0 mm 2 m/s 751 mmHg 85%
    05:00 +16°C° 0 mm 2 m/s 751 mmHg 84%
    06:00 +18°C° 0 mm 2 m/s 751 mmHg 77%
    07:00 +20°C° 0 mm 2 m/s 751 mmHg 71%
    08:00 +23°C° 0 mm 2 m/s 751 mmHg 65%
    09:00 +24°C° 0 mm 2 m/s 751 mmHg 60%
    10:00 +26°C° 0 mm 3 m/s 751 mmHg 54%
    11:00 +27°C° 0 mm 3 m/s 751 mmHg 49%
    12:00 +27°C° 0 mm 3 m/s 750 mmHg 48%
    13:00 +28°C° 0 mm 3 m/s 750 mmHg 47%
    14:00 +28°C° 0 mm 3 m/s 750 mmHg 47%
    15:00 +28°C° 0 mm 2 m/s 749 mmHg 49%
    16:00 +27°C° 0 mm 2 m/s 749 mmHg 52%
    17:00 +27°C° 0 mm 2 m/s 749 mmHg 55%
    18:00 +25°C° 0 mm 2 m/s 749 mmHg 62%
    19:00 +23°C° 0 mm 2 m/s 749 mmHg 69%
    20:00 +20°C° 0 mm 2 m/s 748 mmHg 76%
    21:00 +19°C° 0 mm 2 m/s 748 mmHg 78%
    22:00 +18°C° 0 mm 2 m/s 748 mmHg 80%
    23:00 +17°C° 0 mm 2 m/s 748 mmHg 82%

    29 Iunie, Vineri

    Timp Temperatura Precipitaţii Vânt Presiune Umiditate
    00:00 +16°C° 0 mm 2 m/s 748 mmHg 83%
    01:00 +16°C° 0 mm 2 m/s 748 mmHg 84%
    02:00 +15°C° 0 mm 1 m/s 748 mmHg 85%
    03:00 +16°C° 0 mm 1 m/s 748 mmHg 84%
    04:00 +16°C° 0 mm 1 m/s 747 mmHg 83%
    05:00 +17°C° 0 mm 2 m/s 747 mmHg 82%
    06:00 +19°C° 0 mm 2 m/s 747 mmHg 77%
    07:00 +21°C° 0 mm 2 m/s 747 mmHg 71%
    08:00 +24°C° 0 mm 2 m/s 747 mmHg 65%
    09:00 +25°C° 0 mm 3 m/s 746 mmHg 61%
    10:00 +26°C° 0 mm 3 m/s 746 mmHg 56%
    11:00 +28°C° 0 mm 3 m/s 745 mmHg 51%
    12:00 +28°C° 0 mm 3 m/s 745 mmHg 51%
    13:00 +28°C° 0 mm 3 m/s 745 mmHg 52%
    14:00 +28°C° 0 mm 3 m/s 744 mmHg 52%
    15:00 +28°C° 0 mm 3 m/s 744 mmHg 54%
    16:00 +28°C° 0 mm 3 m/s 743 mmHg 56%
    17:00 +28°C° 0 mm 2 m/s 743 mmHg 58%
    18:00 +26°C° 0 mm 2 m/s 742 mmHg 65%
    19:00 +24°C° 0 mm 2 m/s 742 mmHg 71%
    20:00 +21°C° 0 mm 2 m/s 742 mmHg 78%
    21:00 +20°C° 0 mm 2 m/s 741 mmHg 80%
    22:00 +19°C° 0 mm 2 m/s 741 mmHg 82%
    23:00 +18°C° 0 mm 2 m/s 741 mmHg 84%

    30 Iunie, Sâmbătă

    Timp Temperatura Precipitaţii Vânt Presiune Umiditate
    00:00 +18°C° 0 mm 2 m/s 740 mmHg 87%
    01:00 +17°C° 0 mm 2 m/s 740 mmHg 89%
    02:00 +17°C° 0 mm 2 m/s 740 mmHg 92%
    03:00 +18°C° 0 mm 3 m/s 739 mmHg 90%
    04:00 +18°C° 0 mm 3 m/s 739 mmHg 88%
    05:00 +19°C° 0 mm 4 m/s 739 mmHg 86%
    06:00 +21°C° 0 mm 4 m/s 738 mmHg 80%
    07:00 +22°C° 0 mm 4 m/s 738 mmHg 75%
    08:00 +25°C° 0 mm 4 m/s 737 mmHg 69%
    09:00 +25°C° 0,5 mm 4 m/s 737 mmHg 70%
    10:00 +26°C° 0,5 mm 4 m/s 736 mmHg 71%
    11:00 +27°C° 0,5 mm 5 m/s 736 mmHg 71%
    12:00 +26°C° 1,5 mm 4 m/s 735 mmHg 76%
    13:00 +25°C° 1,5 mm 4 m/s 735 mmHg 80%
    14:00 +25°C° 1,5 mm 3 m/s 735 mmHg 85%
    15:00 +24°C° 1,6 mm 3 m/s 734 mmHg 86%
    16:00 +24°C° 1,6 mm 3 m/s 734 mmHg 87%
    17:00 +24°C° 1,6 mm 2 m/s 734 mmHg 89%
    18:00 +21°C° 0,8 mm 3 m/s 734 mmHg 91%
    19:00 +20°C° 0,8 mm 3 m/s 734 mmHg 93%
    20:00 +19°C° 0,8 mm 3 m/s 734 mmHg 95%
    21:00 +18°C° 0,2 mm 4 m/s 734 mmHg 95%
    22:00 +17°C° 0,2 mm 4 m/s 734 mmHg 96%
    23:00 +15°C° 0,2 mm 5 m/s 734 mmHg 96%
    Arată mai mult